* Astronomy

Members Login
Username 
 
Password 
    Remember Me  
Post Info TOPIC: Asteroid 2012 UN138


L

Posts: 131433
Date:
Asteroid 2012 UN138
Permalink  
 


Orbital elements:
2012 UN138
Epoch 2012 Sept. 30.0 TT = JDT 2456200.5                MPC
M 357.89843              (2000.0)            P               Q
n   0.02974931     Peri.   21.43589     +0.65947714     -0.74057324
a  10.3153703      Node    27.80884     +0.64323603     +0.46712357
e   0.6627440      Incl.   16.05232     +0.38902096     +0.48305987
P  33.13           H   15.5           G   0.15           U   6

MPEC 2012 - U99



__________________
Page 1 of 1  sorted by
 
Quick Reply

Please log in to post quick replies.



Create your own FREE Forum
Report Abuse
Powered by ActiveBoard